Main page
METAR-TAF:

METAR-TAF

Airports :

RAF Boulmer

Boulmer, England

latitude: 55-25-19N, longitude: 1-36-12W, elevation: 24 m

Current weather observation

The report was made 39 minutes ago, at 13:50 UTC
Wind 14 kt from the South
Temperature 14°C
Humidity 77%
Pressure 1012 hPa
Visibility 10 km or more

METAR: EGQM 141350Z AUTO 19014KT 9999 BKN025/// BKN140/// 14/10 Q1012

Time: 14:29 (14:29 UTC)


TAF: missing

Weather observations and forecasts of more than 4000 airports (METAR and TAF reports).

The available stations are represented by yellow and red dots on the map.

Hover mouse over dot to see the name of the station.

Then click to see weather observations and forecasts.

To change the map : click on the green buttons with a black cross to zoom in, on the green button with a dash to zoom out, or on the green arrows for adjacent maps.


METAR-TAF: